This is the latest recevied weather packets stored in our database for station/object KL1SF-7. If no packets are shown the sender has not sent any weather packets the latest 10 day(s).
| Time | Temp. | Humidity | Pressure | Rain* | Wind** | Luminosity | Snow |
|---|---|---|---|---|---|---|---|
| 1788614020 | 10.56° C | 60% | 1023.4 hPa | 0 mm | - | - | - |
| 1788613413 | 10.56° C | 62% | 1023.2 hPa | 0 mm | - | - | - |
| 1788612814 | 10.56° C | 63% | 1023.5 hPa | 0 mm | - | - | - |
| 1788612208 | 10° C | 64% | 1023.5 hPa | 0 mm | - | - | - |
| 1788611621 | 9.44° C | 68% | 1022.7 hPa | 0 mm | - | - | - |
| 1788611022 | 9.44° C | 71% | 1023.3 hPa | 0 mm | - | - | - |
| 1788610411 | 9.44° C | 71% | 1023.3 hPa | 0 mm | - | - | - |
| 1788609824 | 10° C | 70% | 1022.5 hPa | 0 mm | - | - | - |
| 1788609205 | 10° C | 69% | 1022.5 hPa | 0 mm | - | - | - |
| 1788608619 | 10.56° C | 69% | 1022.5 hPa | 0 mm | - | - | - |
| 1788608031 | 10.56° C | 68% | 1022.8 hPa | 0 mm | - | - | - |
| 1788607413 | 11.11° C | 67% | 1022.9 hPa | 0 mm | - | - | - |
| 1788606823 | 11.11° C | 67% | 1022.9 hPa | 0 mm | - | - | - |
| 1788606215 | 11.67° C | 66% | 1022.8 hPa | 0 mm | - | - | - |
| 1788605616 | 11.67° C | 66% | 1022.8 hPa | 0 mm | - | - | - |
| 1788605010 | 12.22° C | 65% | 1022.8 hPa | 0 mm | - | - | - |
| 1788604423 | 12.22° C | 64% | 1023.1 hPa | 0 mm | - | - | - |
| 1788603803 | 12.78° C | 63% | 1023.1 hPa | 0 mm | - | - | - |
| 1788603213 | 13.33° C | 60% | 1023.1 hPa | 0 mm | - | - | - |
| 1788602626 | 13.33° C | 59% | 1023 hPa | 0 mm | - | - | - |
| 1788602006 | 13.89° C | 59% | 1022.6 hPa | 0 mm | - | - | - |
| 1788601416 | 13.89° C | 58% | 1022.6 hPa | 0 mm | - | - | - |
| 1788600817 | 13.89° C | 57% | 1022.6 hPa | 0 mm | - | - | - |
| 1788600222 | 14.44° C | 57% | 1022.6 hPa | 0 mm | - | - | - |
| 1788599611 | 14.44° C | 59% | 1022.6 hPa | 0 mm | - | - | - |
* Rain since midnight (hover to see other rain measurements)
** Current wind speed in m/s (hover to see current wind gust speed)